AUI1NS LTFM-UKBB

Flight info

Callsign AUI1NS
Flight time 1h 33m
Altitude 34000
Route MAKOL N617 BINBI/N0460F350 DCT OSDOR/K0852F350 DCT VAPEL/K0846F360 T219 TEPLO/K0850F350 T219 KONIP
Aircraft B738/M-SDE2E3FGHIRWXY/LB1

Departure

Time 2026-05-07 18:48
Airport İstanbul Airport (LTFM)

Arrival

Time 2026-05-07 20:22
Airport Boryspil International Airport (UKBB)
Time Latitude Longitude Altitude Speed Heading
2026-05-07 18:05 41.26422 28.74117 333 ft 0 kts 101°
2026-05-07 18:32 41.26425 28.74092 329 ft 4 kts 90°
2026-05-07 18:33 41.26421 28.74058 331 ft 4 kts 60°
2026-05-07 18:33 41.26405 28.74037 329 ft 4 kts
2026-05-07 18:33 41.26400 28.74037 329 ft 0 kts 352°
2026-05-07 18:39 41.26407 28.74036 333 ft 2 kts 352°
2026-05-07 18:39 41.26436 28.74031 332 ft 6 kts 351°
2026-05-07 18:39 41.26489 28.74026 330 ft 9 kts 359°
2026-05-07 18:40 41.26564 28.74025 330 ft 12 kts 359°
2026-05-07 18:40 41.26636 28.74023 333 ft 10 kts 359°
2026-05-07 18:40 41.26704 28.74021 332 ft 10 kts 359°
2026-05-07 18:40 41.26769 28.74020 329 ft 9 kts 359°
2026-05-07 18:41 41.26833 28.74018 333 ft 9 kts 359°
2026-05-07 18:41 41.26896 28.74016 333 ft 9 kts 359°
2026-05-07 18:41 41.26956 28.74014 333 ft 9 kts 359°
2026-05-07 18:41 41.27015 28.74013 332 ft 8 kts 359°
2026-05-07 18:42 41.27051 28.73963 331 ft 8 kts 279°
2026-05-07 18:42 41.27052 28.73889 333 ft 8 kts 269°
2026-05-07 18:42 41.27051 28.73810 333 ft 10 kts 269°
2026-05-07 18:42 41.27049 28.73704 333 ft 13 kts 269°
2026-05-07 18:43 41.27048 28.73583 330 ft 13 kts 269°
2026-05-07 18:43 41.27046 28.73466 331 ft 13 kts 269°
2026-05-07 18:43 41.27044 28.73351 333 ft 12 kts 269°
2026-05-07 18:43 41.27043 28.73240 333 ft 12 kts 269°
2026-05-07 18:44 41.27042 28.73131 333 ft 12 kts 269°
2026-05-07 18:44 41.27038 28.73025 333 ft 11 kts 252°
2026-05-07 18:44 41.26972 28.72986 329 ft 11 kts 180°
2026-05-07 18:44 41.26897 28.72988 333 ft 11 kts 179°
2026-05-07 18:45 41.26824 28.72990 332 ft 10 kts 178°
2026-05-07 18:45 41.26759 28.72993 331 ft 8 kts 178°
2026-05-07 18:45 41.26719 28.72956 333 ft 8 kts 255°
2026-05-07 18:45 41.26716 28.72885 330 ft 8 kts 269°
2026-05-07 18:46 41.26715 28.72815 333 ft 7 kts 269°
2026-05-07 18:46 41.26714 28.72749 333 ft 7 kts 269°
2026-05-07 18:46 41.26713 28.72674 329 ft 10 kts 269°
2026-05-07 18:46 41.26712 28.72582 333 ft 10 kts 269°
2026-05-07 18:47 41.26721 28.72524 330 ft 7 kts 320°
2026-05-07 18:47 41.26756 28.72514 333 ft 0 kts 359°
2026-05-07 18:47 41.26822 28.72512 330 ft 37 kts 359°
2026-05-07 18:48 41.27323 28.72499 330 ft 106 kts 359°
2026-05-07 18:48 41.28279 28.72464 332 ft 164 kts 355°
2026-05-07 18:48 41.29493 28.72401 830 ft 174 kts 358°
2026-05-07 18:48 41.30728 28.72399 1521 ft 184 kts 359°
2026-05-07 18:49 41.32000 28.72457 2239 ft 190 kts 359°
2026-05-07 18:49 41.33413 28.72550 2490 ft 215 kts 359°
2026-05-07 18:49 41.34998 28.72664 2682 ft 235 kts 359°
2026-05-07 18:49 41.36663 28.72773 2919 ft 254 kts 359°
2026-05-07 18:50 41.38476 28.72881 3401 ft 265 kts
2026-05-07 18:50 41.40295 28.73423 4112 ft 272 kts 19°
2026-05-07 18:50 41.42039 28.74410 4891 ft 273 kts 21°
2026-05-07 18:50 41.43790 28.75416 5630 ft 274 kts 21°
2026-05-07 18:51 41.45543 28.76405 6389 ft 275 kts 21°
2026-05-07 18:51 41.47323 28.77389 7033 ft 279 kts 20°
2026-05-07 18:51 41.49127 28.78368 7716 ft 281 kts 20°
2026-05-07 18:51 41.50942 28.79343 8414 ft 282 kts 20°
2026-05-07 18:52 41.52775 28.80322 9086 ft 285 kts 20°
2026-05-07 18:52 41.54625 28.81298 9786 ft 287 kts 20°
2026-05-07 18:52 41.56496 28.82283 10337 ft 294 kts 20°
2026-05-07 18:52 41.58472 28.83323 10490 ft 315 kts 20°
2026-05-07 18:53 41.60576 28.84427 10649 ft 335 kts 20°
2026-05-07 18:53 41.62808 28.85597 10795 ft 353 kts 20°
2026-05-07 18:53 41.65150 28.86826 10929 ft 370 kts 20°
2026-05-07 18:53 41.67590 28.88107 11238 ft 381 kts 20°
2026-05-07 18:54 41.70064 28.89407 11747 ft 384 kts 20°
2026-05-07 18:54 41.72560 28.90719 12326 ft 386 kts 20°
2026-05-07 18:54 41.75072 28.92041 12891 ft 390 kts 20°
2026-05-07 18:54 41.77605 28.93374 13461 ft 392 kts 20°
2026-05-07 18:55 41.80149 28.94712 14084 ft 394 kts 20°
2026-05-07 18:55 41.82714 28.96059 14598 ft 397 kts 20°
2026-05-07 18:55 41.85297 28.97423 15113 ft 401 kts 20°
2026-05-07 18:55 41.87899 28.98799 15663 ft 403 kts 20°
2026-05-07 18:56 41.90519 29.00184 16203 ft 406 kts 20°
2026-05-07 18:56 41.93158 29.01580 16729 ft 409 kts 20°
2026-05-07 18:56 41.95823 29.02988 17216 ft 413 kts 20°
2026-05-07 18:56 41.98507 29.04409 17715 ft 416 kts 20°
2026-05-07 18:57 42.01216 29.05847 18229 ft 419 kts 20°
2026-05-07 18:57 42.03932 29.07290 18686 ft 422 kts 20°
2026-05-07 18:57 42.06666 29.08743 19143 ft 424 kts 20°
2026-05-07 18:57 42.09415 29.10205 19617 ft 425 kts 20°
2026-05-07 18:58 42.12170 29.11671 20097 ft 426 kts 20°
2026-05-07 18:58 42.14930 29.13140 20577 ft 427 kts 20°
2026-05-07 18:58 42.17716 29.14557 21010 ft 429 kts 16°
2026-05-07 18:58 42.20601 29.15595 21422 ft 430 kts 12°
2026-05-07 18:59 42.23526 29.16489 21835 ft 431 kts 11°
2026-05-07 18:59 42.26466 29.17349 22236 ft 433 kts 10°
2026-05-07 18:59 42.29418 29.18214 22645 ft 435 kts 11°
2026-05-07 18:59 42.32373 29.19094 23090 ft 435 kts 11°
2026-05-07 19:00 42.35334 29.19993 23472 ft 437 kts 11°
2026-05-07 19:00 42.38307 29.20908 23804 ft 440 kts 11°
2026-05-07 19:00 42.41298 29.21838 24085 ft 442 kts 11°
2026-05-07 19:00 42.44294 29.22775 24390 ft 443 kts 11°
2026-05-07 19:01 42.47301 29.23718 24710 ft 444 kts 11°
2026-05-07 19:01 42.50313 29.24665 25036 ft 445 kts 11°
2026-05-07 19:01 42.53344 29.25618 25225 ft 449 kts 11°
2026-05-07 19:01 42.56396 29.26578 25462 ft 452 kts 11°
2026-05-07 19:02 42.59464 29.27544 25761 ft 452 kts 11°
2026-05-07 19:02 42.62529 29.28511 26058 ft 453 kts 11°
2026-05-07 19:02 42.65602 29.29480 26416 ft 453 kts 11°
2026-05-07 19:02 42.68652 29.30445 26938 ft 448 kts 10°
2026-05-07 19:03 42.71637 29.31390 27441 ft 444 kts 10°
2026-05-07 19:03 42.74636 29.32340 27893 ft 442 kts 10°
2026-05-07 19:03 42.77625 29.33286 28274 ft 441 kts 10°
2026-05-07 19:03 42.80611 29.34232 28643 ft 441 kts 10°
2026-05-07 19:04 42.83596 29.35179 29055 ft 439 kts 10°
2026-05-07 19:04 42.86564 29.36121 29495 ft 437 kts 10°
2026-05-07 19:04 42.89519 29.37061 29917 ft 436 kts
2026-05-07 19:04 42.92465 29.37998 30287 ft 435 kts
2026-05-07 19:05 42.95411 29.38937 30601 ft 434 kts
2026-05-07 19:05 42.98351 29.39874 30902 ft 433 kts
2026-05-07 19:05 43.01284 29.40810 31207 ft 433 kts
2026-05-07 19:05 43.04212 29.41745 31545 ft 431 kts
2026-05-07 19:06 43.07126 29.42678 31886 ft 430 kts
2026-05-07 19:06 43.12947 29.44541 32421 ft 430 kts
2026-05-07 19:06 43.15861 29.45476 32704 ft 429 kts
2026-05-07 19:07 43.18764 29.46408 33016 ft 428 kts
2026-05-07 19:07 43.21661 29.47339 33310 ft 427 kts
2026-05-07 19:07 43.24556 29.48271 33615 ft 426 kts
2026-05-07 19:07 43.27438 29.49199 33905 ft 425 kts
2026-05-07 19:08 43.30318 29.50127 34122 ft 426 kts
2026-05-07 19:08 43.33218 29.51061 34119 ft 430 kts
2026-05-07 19:08 43.39047 29.52944 34127 ft 429 kts
2026-05-07 19:09 43.44800 29.54810 34128 ft 421 kts
2026-05-07 19:09 43.50478 29.56652 34125 ft 419 kts
2026-05-07 19:10 43.56192 29.58513 34150 ft 426 kts
2026-05-07 19:10 43.61986 29.60388 34296 ft 434 kts 10°
2026-05-07 19:11 43.64925 29.61349 34448 ft 435 kts 10°
2026-05-07 19:11 43.67868 29.62312 34639 ft 434 kts 10°
2026-05-07 19:11 43.70804 29.63273 34870 ft 433 kts 10°
2026-05-07 19:11 43.73741 29.64231 35068 ft 433 kts 10°
2026-05-07 19:12 43.79646 29.66134 35150 ft 437 kts 10°
2026-05-07 19:12 43.85544 29.68035 35129 ft 432 kts 10°
2026-05-07 19:13 43.91363 29.69919 35138 ft 428 kts 10°
2026-05-07 19:13 43.97159 29.71798 35139 ft 428 kts 10°
2026-05-07 19:14 44.02953 29.73681 35127 ft 428 kts 10°
2026-05-07 19:14 44.08747 29.75568 35143 ft 428 kts 10°
2026-05-07 19:15 44.13578 29.77144 35145 ft 430 kts 10°
2026-05-07 19:15 44.20399 29.79374 35154 ft 432 kts 10°
2026-05-07 19:16 44.25270 29.80970 35149 ft 433 kts 10°
2026-05-07 19:16 44.31140 29.82898 35143 ft 434 kts 10°
2026-05-07 19:17 44.37017 29.84831 35153 ft 434 kts 10°
2026-05-07 19:17 44.42900 29.86771 35260 ft 435 kts 10°
2026-05-07 19:18 44.45844 29.87743 35482 ft 433 kts 10°
2026-05-07 19:18 44.48773 29.88712 35720 ft 432 kts 10°
2026-05-07 19:18 44.51691 29.89678 35957 ft 430 kts 10°
2026-05-07 19:18 44.54602 29.90642 36099 ft 431 kts 10°
2026-05-07 19:19 44.60468 29.92586 36152 ft 435 kts 10°
2026-05-07 19:19 44.66350 29.94541 36140 ft 433 kts 11°
2026-05-07 19:20 44.72203 29.96492 36143 ft 431 kts 11°
2026-05-07 19:20 44.78039 29.98440 36144 ft 430 kts 11°
2026-05-07 19:21 44.83853 30.00385 36144 ft 429 kts 11°
2026-05-07 19:21 44.89659 30.02331 36145 ft 429 kts 11°
2026-05-07 19:22 44.95466 30.04281 36146 ft 429 kts 11°
2026-05-07 19:22 45.01285 30.06148 36148 ft 429 kts
2026-05-07 19:23 45.07144 30.07794 36132 ft 430 kts
2026-05-07 19:23 45.13019 30.09425 36147 ft 431 kts
2026-05-07 19:24 45.18869 30.11079 36153 ft 432 kts
2026-05-07 19:24 45.24771 30.12769 36143 ft 433 kts
2026-05-07 19:25 45.30687 30.14472 36145 ft 434 kts
2026-05-07 19:25 45.36619 30.16184 36145 ft 435 kts
2026-05-07 19:26 45.42552 30.17900 36136 ft 435 kts
2026-05-07 19:26 45.48480 30.19618 36137 ft 435 kts
2026-05-07 19:27 45.54411 30.21340 36147 ft 434 kts
2026-05-07 19:27 45.60323 30.23060 36146 ft 434 kts
2026-05-07 19:28 45.66232 30.24783 36135 ft 433 kts
2026-05-07 19:28 45.72135 30.26507 36140 ft 433 kts
2026-05-07 19:29 45.78031 30.28233 36137 ft 432 kts
2026-05-07 19:29 45.83929 30.29964 36149 ft 433 kts
2026-05-07 19:30 45.89826 30.31698 36137 ft 433 kts
2026-05-07 19:30 45.95722 30.33436 36135 ft 433 kts
2026-05-07 19:31 46.01618 30.35177 36147 ft 433 kts
2026-05-07 19:31 46.07519 30.36924 36140 ft 433 kts
2026-05-07 19:32 46.13425 30.38676 36128 ft 433 kts
2026-05-07 19:32 46.19333 30.40433 36144 ft 434 kts
2026-05-07 19:33 46.25250 30.42195 36146 ft 434 kts
2026-05-07 19:33 46.31173 30.43964 36144 ft 435 kts
2026-05-07 19:34 46.37104 30.45739 36131 ft 436 kts
2026-05-07 19:34 46.43007 30.47509 36148 ft 436 kts
2026-05-07 19:35 46.48952 30.49297 36137 ft 437 kts
2026-05-07 19:35 46.54907 30.51091 36137 ft 437 kts
2026-05-07 19:36 46.60861 30.52889 36143 ft 437 kts
2026-05-07 19:36 46.66823 30.54693 36138 ft 438 kts
2026-05-07 19:37 46.72788 30.56502 36138 ft 438 kts
2026-05-07 19:37 46.78753 30.58316 36139 ft 438 kts
2026-05-07 19:38 46.84720 30.60134 36136 ft 438 kts
2026-05-07 19:38 46.90691 30.61957 36131 ft 439 kts
2026-05-07 19:39 46.96667 30.63787 36134 ft 438 kts
2026-05-07 19:39 47.02638 30.65618 36129 ft 439 kts
2026-05-07 19:40 47.08613 30.67455 36136 ft 438 kts
2026-05-07 19:40 47.14583 30.69295 36131 ft 439 kts
2026-05-07 19:41 47.20556 30.71141 36127 ft 439 kts
2026-05-07 19:41 47.26527 30.72989 36134 ft 439 kts
2026-05-07 19:42 47.32509 30.74845 36126 ft 439 kts
2026-05-07 19:42 47.38490 30.76706 36126 ft 440 kts
2026-05-07 19:43 47.44475 30.78572 36125 ft 440 kts 10°
2026-05-07 19:43 47.50469 30.80445 36120 ft 440 kts 10°
2026-05-07 19:44 47.56468 30.82324 36125 ft 441 kts 10°
2026-05-07 19:44 47.62475 30.84210 36120 ft 441 kts 10°
2026-05-07 19:45 47.68481 30.86100 36120 ft 442 kts 10°
2026-05-07 19:45 47.74496 30.87998 36116 ft 442 kts 10°
2026-05-07 19:46 47.80474 30.89888 36114 ft 443 kts 10°
2026-05-07 19:46 47.86502 30.91799 36114 ft 443 kts 10°
2026-05-07 19:47 47.92537 30.93716 35920 ft 447 kts 10°
2026-05-07 19:47 47.95574 30.94683 35765 ft 440 kts 10°
2026-05-07 19:47 47.98543 30.95630 35445 ft 433 kts 10°
2026-05-07 19:48 48.01459 30.96562 35286 ft 423 kts 10°
2026-05-07 19:48 48.04308 30.97469 35096 ft 413 kts
2026-05-07 19:48 48.07111 30.98239 34818 ft 408 kts
2026-05-07 19:48 48.09939 30.98901 34584 ft 417 kts
2026-05-07 19:49 48.12853 30.99541 34314 ft 430 kts
2026-05-07 19:49 48.15841 31.00192 33978 ft 435 kts
2026-05-07 19:49 48.18835 31.00856 33655 ft 432 kts
2026-05-07 19:49 48.21792 31.01525 33344 ft 429 kts
2026-05-07 19:50 48.24727 31.02195 33046 ft 425 kts
2026-05-07 19:50 48.27640 31.02865 32766 ft 422 kts
2026-05-07 19:50 48.30532 31.03535 32485 ft 419 kts
2026-05-07 19:50 48.33409 31.04205 32208 ft 417 kts
2026-05-07 19:51 48.36274 31.04874 31930 ft 416 kts
2026-05-07 19:51 48.39131 31.05542 31657 ft 415 kts
2026-05-07 19:51 48.41985 31.06209 31388 ft 415 kts
2026-05-07 19:51 48.44837 31.06878 31119 ft 414 kts
2026-05-07 19:52 48.47681 31.07544 30826 ft 414 kts
2026-05-07 19:52 48.50522 31.08209 30562 ft 413 kts
2026-05-07 19:52 48.53359 31.08873 30288 ft 412 kts
2026-05-07 19:52 48.56152 31.09528 29986 ft 411 kts
2026-05-07 19:53 48.58974 31.10191 29673 ft 410 kts
2026-05-07 19:53 48.61784 31.10852 29382 ft 408 kts
2026-05-07 19:53 48.64580 31.11511 29122 ft 405 kts
2026-05-07 19:53 48.67353 31.12165 28844 ft 403 kts
2026-05-07 19:54 48.70115 31.12816 28560 ft 401 kts
2026-05-07 19:54 48.72866 31.13467 28311 ft 399 kts
2026-05-07 19:54 48.75600 31.14114 28042 ft 397 kts
2026-05-07 19:54 48.78326 31.14762 27759 ft 396 kts
2026-05-07 19:55 48.81041 31.15403 27499 ft 395 kts
2026-05-07 19:55 48.83751 31.16044 27238 ft 394 kts
2026-05-07 19:55 48.86452 31.16683 26980 ft 393 kts
2026-05-07 19:55 48.89156 31.17325 26728 ft 392 kts
2026-05-07 19:56 48.91852 31.17970 26466 ft 392 kts
2026-05-07 19:56 48.94551 31.18612 26203 ft 392 kts
2026-05-07 19:56 48.97241 31.19256 25942 ft 391 kts
2026-05-07 19:56 48.99925 31.19899 25678 ft 390 kts
2026-05-07 19:57 49.02605 31.20541 25416 ft 389 kts
2026-05-07 19:57 49.05277 31.21231 25157 ft 388 kts 11°
2026-05-07 19:57 49.07907 31.22083 24895 ft 386 kts 12°
2026-05-07 19:57 49.10525 31.23005 24630 ft 385 kts 13°
2026-05-07 19:58 49.13134 31.23897 24368 ft 382 kts
2026-05-07 19:58 49.15764 31.24136 24046 ft 377 kts 355°
2026-05-07 19:58 49.18358 31.23767 23699 ft 373 kts 354°
2026-05-07 19:58 49.20946 31.23342 23163 ft 374 kts 353°
2026-05-07 19:59 49.23516 31.22915 22874 ft 369 kts 353°
2026-05-07 19:59 49.26054 31.22500 22582 ft 365 kts 353°
2026-05-07 19:59 49.28567 31.22098 22321 ft 364 kts 353°
2026-05-07 19:59 49.31076 31.21703 22071 ft 370 kts 354°
2026-05-07 20:00 49.33663 31.21302 21812 ft 374 kts 353°
2026-05-07 20:00 49.36247 31.20905 21554 ft 372 kts 353°
2026-05-07 20:00 49.38812 31.20511 21286 ft 369 kts 354°
2026-05-07 20:00 49.41362 31.20120 21022 ft 368 kts 353°
2026-05-07 20:01 49.43901 31.19732 20766 ft 366 kts 353°
2026-05-07 20:01 49.46433 31.19346 20504 ft 365 kts 354°
2026-05-07 20:01 49.48958 31.18962 20241 ft 364 kts 353°
2026-05-07 20:01 49.51477 31.18577 19980 ft 364 kts 353°
2026-05-07 20:02 49.53993 31.18192 19729 ft 363 kts 353°
2026-05-07 20:02 49.55662 31.17937 19563 ft 363 kts 353°
2026-05-07 20:02 49.58174 31.17552 19311 ft 363 kts 354°
2026-05-07 20:02 49.60682 31.17167 19061 ft 362 kts 354°
2026-05-07 20:03 49.63188 31.16782 18817 ft 362 kts 353°
2026-05-07 20:03 49.65698 31.16396 18561 ft 362 kts 353°
2026-05-07 20:03 49.68200 31.16010 18303 ft 362 kts 353°
2026-05-07 20:03 49.70708 31.15624 18015 ft 361 kts 353°
2026-05-07 20:04 49.73207 31.15238 17752 ft 360 kts 353°
2026-05-07 20:04 49.75700 31.14853 17483 ft 359 kts 353°
2026-05-07 20:04 49.78178 31.14470 17226 ft 357 kts 353°
2026-05-07 20:04 49.80643 31.14088 16974 ft 355 kts 353°
2026-05-07 20:05 49.83099 31.13708 16729 ft 354 kts 353°
2026-05-07 20:05 49.85542 31.13329 16484 ft 352 kts 353°
2026-05-07 20:05 49.87979 31.12950 16242 ft 351 kts 353°
2026-05-07 20:05 49.90407 31.12573 16006 ft 350 kts 353°
2026-05-07 20:06 49.92830 31.12196 15758 ft 349 kts 353°
2026-05-07 20:06 49.95246 31.11819 15509 ft 349 kts 353°
2026-05-07 20:06 49.97656 31.11444 15265 ft 348 kts 353°
2026-05-07 20:06 50.00058 31.11069 15026 ft 347 kts 353°
2026-05-07 20:07 50.02461 31.10693 14659 ft 348 kts 353°
2026-05-07 20:07 50.04884 31.10313 14257 ft 352 kts 353°
2026-05-07 20:07 50.07318 31.09932 13859 ft 351 kts 353°
2026-05-07 20:07 50.09746 31.09552 13407 ft 350 kts 353°
2026-05-07 20:08 50.12134 31.09178 12959 ft 349 kts 353°
2026-05-07 20:08 50.14550 31.08798 12541 ft 348 kts 353°
2026-05-07 20:08 50.16955 31.08421 12107 ft 347 kts 353°
2026-05-07 20:08 50.19348 31.08044 11685 ft 345 kts 353°
2026-05-07 20:09 50.21733 31.07669 11265 ft 344 kts 353°
2026-05-07 20:09 50.24109 31.07294 10852 ft 342 kts 353°
2026-05-07 20:09 50.26472 31.06921 10442 ft 341 kts 353°
2026-05-07 20:10 50.31165 31.06179 9612 ft 337 kts 353°
2026-05-07 20:10 50.33494 31.05811 9167 ft 336 kts 353°
2026-05-07 20:10 50.35814 31.05442 8731 ft 334 kts 353°
2026-05-07 20:10 50.38125 31.05073 8295 ft 333 kts 353°
2026-05-07 20:11 50.40428 31.04709 7876 ft 332 kts 353°
2026-05-07 20:11 50.42720 31.04345 7447 ft 330 kts 354°
2026-05-07 20:11 50.44999 31.03984 7048 ft 329 kts 354°
2026-05-07 20:11 50.47269 31.03623 6638 ft 327 kts 354°
2026-05-07 20:12 50.49534 31.03469 6212 ft 324 kts
2026-05-07 20:12 50.51759 31.03676 5780 ft 317 kts
2026-05-07 20:12 50.53942 31.03908 5340 ft 311 kts
2026-05-07 20:12 50.56083 31.04120 4924 ft 306 kts
2026-05-07 20:13 50.58175 31.04298 4655 ft 296 kts
2026-05-07 20:13 50.60202 31.04458 4383 ft 288 kts
2026-05-07 20:13 50.62172 31.04560 4115 ft 278 kts 353°
2026-05-07 20:13 50.63940 31.03705 3992 ft 257 kts 323°
2026-05-07 20:14 50.65133 31.01771 3755 ft 241 kts 292°
2026-05-07 20:14 50.65489 30.99323 3514 ft 225 kts 261°
2026-05-07 20:14 50.64971 30.97087 3292 ft 216 kts 233°
2026-05-07 20:14 50.64054 30.95235 3080 ft 212 kts 229°
2026-05-07 20:15 50.63149 30.93502 3007 ft 203 kts 229°
2026-05-07 20:15 50.62191 30.91986 2980 ft 189 kts 208°
2026-05-07 20:15 50.60945 30.91773 3012 ft 187 kts 171°
2026-05-07 20:15 50.59654 30.92129 2984 ft 187 kts 181°
2026-05-07 20:16 50.58370 30.92142 2985 ft 183 kts 183°
2026-05-07 20:16 50.57140 30.92142 2972 ft 170 kts 184°
2026-05-07 20:16 50.55993 30.92098 2977 ft 164 kts 185°
2026-05-07 20:16 50.54854 30.92029 2981 ft 163 kts 186°
2026-05-07 20:17 50.53726 30.91952 2978 ft 162 kts 186°
2026-05-07 20:17 50.52605 30.91871 2981 ft 161 kts 186°
2026-05-07 20:17 50.51493 30.91789 2994 ft 159 kts 186°
2026-05-07 20:17 50.50382 30.91707 2998 ft 159 kts 186°
2026-05-07 20:18 50.49300 30.91628 2936 ft 154 kts 186°
2026-05-07 20:18 50.48230 30.91549 2762 ft 153 kts 186°
2026-05-07 20:18 50.47197 30.91473 2564 ft 146 kts 186°
2026-05-07 20:18 50.46198 30.91399 2391 ft 143 kts 186°
2026-05-07 20:19 50.45201 30.91325 2204 ft 143 kts 186°
2026-05-07 20:19 50.44213 30.91252 2022 ft 141 kts 186°
2026-05-07 20:19 50.43238 30.91180 1830 ft 139 kts 187°
2026-05-07 20:19 50.42269 30.91108 1642 ft 140 kts 186°
2026-05-07 20:20 50.41282 30.91033 1453 ft 142 kts 185°
2026-05-07 20:20 50.40293 30.90962 1261 ft 144 kts 185°
2026-05-07 20:20 50.39268 30.90886 1084 ft 150 kts 184°
2026-05-07 20:20 50.38210 30.90811 876 ft 153 kts 183°
2026-05-07 20:21 50.37167 30.90728 661 ft 152 kts 184°
2026-05-07 20:21 50.36078 30.90644 460 ft 156 kts 182°
2026-05-07 20:21 50.35069 30.90574 416 ft 132 kts 182°
2026-05-07 20:21 50.34298 30.90519 413 ft 89 kts 182°
2026-05-07 20:22 50.33837 30.90486 418 ft 48 kts 182°
2026-05-07 20:22 50.33542 30.90464 425 ft 36 kts 182°
2026-05-07 20:22 50.33365 30.90430 423 ft 18 kts 207°
2026-05-07 20:22 50.33320 30.90314 415 ft 7 kts 267°
2026-05-07 20:23 50.33321 30.90223 416 ft 9 kts 274°
2026-05-07 20:23 50.33323 30.90189 415 ft 3 kts 274°
2026-05-07 20:23 50.33324 30.90156 415 ft 3 kts 274°
2026-05-07 20:23 50.33339 30.90124 411 ft 4 kts 325°
2026-05-07 20:24 50.33371 30.90123 409 ft 6 kts
2026-05-07 20:24 50.33419 30.90130 410 ft 7 kts
2026-05-07 20:24 50.33467 30.90135 415 ft 7 kts
2026-05-07 20:24 50.33515 30.90137 410 ft 7 kts
2026-05-07 20:25 50.33561 30.90140 410 ft 7 kts
2026-05-07 20:25 50.33596 30.90104 411 ft 7 kts 285°
2026-05-07 20:25 50.33600 30.90032 407 ft 7 kts 272°
2026-05-07 20:25 50.33602 30.89962 414 ft 6 kts 272°
2026-05-07 20:26 50.33604 30.89892 414 ft 6 kts 272°
2026-05-07 20:26 50.33606 30.89824 414 ft 6 kts 272°
2026-05-07 20:26 50.33608 30.89758 409 ft 6 kts 272°
2026-05-07 20:26 50.33610 30.89692 409 ft 6 kts 272°
2026-05-07 20:27 50.33609 30.89628 414 ft 6 kts 261°
2026-05-07 20:27 50.33599 30.89566 414 ft 6 kts 256°
2026-05-07 20:27 50.33595 30.89490 414 ft 8 kts 275°
2026-05-07 20:27 50.33596 30.89480 414 ft 0 kts 275°
2026-05-07 20:29 50.33597 30.89477 409 ft 0 kts 296°
2026-05-07 20:29 50.33600 30.89476 410 ft 0 kts 325°
2026-05-07 20:29 50.33607 30.89472 411 ft 3 kts 342°
2026-05-07 20:29 50.33639 30.89471 414 ft 5 kts
2026-05-07 20:30 50.33649 30.89472 414 ft 1 kts
2026-05-07 20:30 50.33658 30.89472 407 ft 3 kts
2026-05-07 20:30 50.33689 30.89474 408 ft 6 kts
2026-05-07 20:30 50.33727 30.89476 407 ft 6 kts
2026-05-07 20:31 50.33746 30.89477 414 ft 2 kts
2026-05-07 20:31 50.33759 30.89478 414 ft 2 kts
2026-05-07 20:31 50.33778 30.89479 409 ft 4 kts
2026-05-07 20:31 50.33810 30.89482 410 ft 5 kts
2026-05-07 20:32 50.33834 30.89513 407 ft 5 kts 64°
2026-05-07 20:32 50.33838 30.89565 414 ft 5 kts 91°
2026-05-07 20:32 50.33825 30.89612 407 ft 5 kts 146°
2026-05-07 20:32 50.33793 30.89617 414 ft 4 kts 187°
2026-05-07 20:33 50.33775 30.89590 414 ft 0 kts 241°
2026-05-07 20:33 50.33774 30.89583 407 ft 2 kts 249°
2026-05-07 20:33 50.33772 30.89562 414 ft 0 kts 266°